DELTA 1 DEB, 14528

Orbit data source: Space-Track

DELTA 1 DEB, 14528 is space debris in LEO originally from a launch on Thu, 14 Jul 1977 UTC launched from the Air Force Eastern Test Range (AFETR). Debris objects in space refer to the collection of defunct objects orbiting the Earth. Examples of debris include non-operational satellites, rocket bodies, and fragments generated from explosions, collisions, or faulty payload assembly.

Loading next visibility...
Identifier
14528, 1977-065FP
Orbit
LEO
Country
Flag of USUS
Related business
Manufacturer
Unknown
Mission
Spacecraft
Bus & Motor
Unknown
Mass
Unknown
Launch date (UTC)
1977-07-14 (48 years ago)
Launch vehicle
Unknown
Launch site
Air Force Eastern Test Range (AFETR)
Object type
Payload
Rocket body
Debris
Shape & HBR
Unknown shape, 0.1 m
Radar Cross Section
Small (<0.1 m²)

Expand to show TLE details & history
Last TLE update: 23 hours ago

TLE from 23 hours ago
0 DELTA 1 DEB
1 14528U 77065FP  25347.23256089  .00000423  00000-0  20593-2 0  9991
2 14528  28.0693 176.9590 0312606  93.1317 270.5006 12.46552771552876
Epoch: 2025-12-13T05:34Z
TLE epoch observation values (Epoch: 2025-12-13T05:34:53.260Z)
Latitude
-0.00004°
Longitude
11.07423°
Altitude
1,482.916 km
Speed
7.122 km/s
True Right ascension
11h 47m 50s
True Declination
0° 00' 00"
Sunlit
Object was in daylight at epoch
Visualization orbit readout
Latitude
Unknown
Longitude
Unknown
Altitude
Unknown
Speed
Unknown
Apparent Right ascension
Unknown
Apparent Declination
Unknown
Sunlit
N/A
Visualization observer readout
Local Sidereal Time
03:35:22
Azimuth
Unknown
Elevation
Unknown
Doppler factor
Unknown
Orbital elements
Apogee altitude
1,728.437 km
Perigee altitude
1,236.968 km
Semi-major axis
7,860.839 km
Eccentricity
0.03126
Inclination
28.0693°
RAAN
176.959°
Arg. of periapsis
93.1317°
True anomaly
266.91965°
Mean anomaly
270.5006°
Eccentric anomaly
268.70995°
Mean motion
3.11415 °/min
Orbital period
115.6 mins
BSTAR
0.0020593
Loading maneuver chart data...
Computing Atmospheric mass density...

Documentation

Showing up to 5 results
|